Location: Unspecified
(0.0000°N, 0.0000°E)
Time: 17:17:51
(UTC+00:00)

S-56A Canister/Altair - All Passes

Search period start: 26 September 2016 00:00
Search period end: 06 October 2016 00:00
Orbit: 640 x 2494 km, 38.9° (Epoch: 26 September)

Date Brightness Start Highest point End Pass type
(mag) Time Alt. Az. Time Alt. Az. Time Alt. Az.
26 Sep - 01:02:10 10° WNW 01:16:52 68° SW 01:30:51 10° SE visible
26 Sep - 03:13:47 10° W 03:24:03 22° SW 03:33:08 10° S visible
26 Sep - 11:53:15 10° SW 11:57:52 47° SE 12:02:11 10° ENE daylight
26 Sep - 13:59:14 10° WNW 14:01:39 14° NW 14:04:13 10° N daylight
26 Sep - 22:24:37 10° NNW 22:36:37 41° NE 22:50:14 10° ESE visible
27 Sep - 00:29:01 10° NW 00:43:32 76° SW 00:58:03 10° SE visible
27 Sep - 02:39:20 10° W 02:50:47 26° SW 03:01:04 10° SSE visible
27 Sep - 11:21:02 10° SSW 11:25:38 36° SE 11:29:45 10° ENE daylight
27 Sep - 13:26:16 10° W 13:29:18 18° NW 13:32:28 10° N daylight
27 Sep - 21:52:18 10° NNW 22:03:23 35° NE 22:16:21 10° ESE visible
27 Sep - 23:56:02 10° NW 00:10:11 84° SW 00:25:06 10° SE visible
28 Sep - 02:05:10 10° W 02:17:28 30° SW 02:28:50 10° SSE visible
28 Sep - 10:48:47 10° SSW 10:53:22 29° SE 10:57:17 10° E daylight
28 Sep - 12:53:26 10° W 12:57:00 22° NW 13:00:37 10° NNE daylight
28 Sep - 21:20:10 10° NNW 21:30:13 30° NE 21:42:14 10° E visible
28 Sep - 23:23:10 10° NW 23:36:50 87° NE 23:52:01 10° SE night (unlit)
29 Sep - 01:31:17 10° W 01:44:07 35° SW 01:56:25 10° SSE visible
29 Sep - 10:16:31 10° SSW 10:21:01 24° SE 10:24:47 10° E daylight
29 Sep - 12:20:39 10° WSW 12:24:47 29° NW 12:28:43 10° NNE daylight
29 Sep - 20:48:11 10° N 20:57:06 25° NE 21:07:52 10° E visible
29 Sep - 22:50:28 10° NW 23:03:33 79° NE 23:18:48 10° SE night (unlit)
30 Sep - 00:57:37 10° WNW 01:10:45 40° SW 01:23:52 10° SSE visible
30 Sep - 03:16:04 10° SW 03:19:30 11° SSW 03:22:49 10° SSW visible
30 Sep - 09:44:13 10° SSW 09:48:36 20° SSE 09:52:14 10° E daylight
30 Sep - 11:47:55 10° WSW 11:52:35 39° NW 11:56:46 10° NNE daylight
30 Sep - 20:16:26 10° N 20:24:03 20° NE 20:33:12 10° E visible
30 Sep - 22:17:53 10° NW 22:30:18 70° NE 22:45:26 10° SE visible
01 Oct - 00:24:11 10° WNW 00:37:23 45° SW 00:51:09 10° SSE visible
01 Oct - 02:39:39 10° WSW 02:46:01 14° SSW 02:52:05 10° S visible
01 Oct - 09:11:53 10° S 09:16:06 17° SSE 09:19:36 10° ESE daylight
01 Oct - 11:15:12 10° WSW 11:20:25 54° NW 11:24:47 10° NE daylight
01 Oct - 19:45:01 10° N 19:51:04 16° NE 19:58:08 10° ENE visible
01 Oct - 21:45:27 10° NW 21:57:08 62° NE 22:11:55 10° ESE visible
01 Oct - 23:50:56 10° WNW 00:03:59 50° SW 00:18:19 10° SSE visible
02 Oct - 02:04:22 10° WSW 02:12:31 16° SSW 02:20:23 10° S visible
02 Oct - 08:39:31 10° S 08:43:32 16° SSE 08:46:54 10° ESE daylight
02 Oct - 10:42:28 10° SW 10:48:14 73° NW 10:52:46 10° NE daylight
02 Oct - 19:14:18 10° NNE 19:18:06 12° NE 19:22:20 10° ENE visible
02 Oct - 21:13:07 10° NNW 21:24:02 54° NE 21:38:15 10° ESE visible
02 Oct - 23:17:52 10° WNW 23:30:38 56° SW 23:45:23 10° SE night (unlit)
03 Oct - 01:29:38 10° WSW 01:39:00 19° SSW 01:48:15 10° S visible
03 Oct - 08:07:08 10° S 08:10:53 14° SSE 08:14:04 10° ESE daylight
03 Oct - 10:09:43 10° SW 10:16:01 86° SE 10:20:42 10° NE daylight
03 Oct - 20:40:56 10° NNW 20:51:01 46° NE 21:04:27 10° ESE visible
03 Oct - 22:44:58 10° WNW 22:57:18 63° SW 23:12:18 10° SE visible
04 Oct - 00:55:19 10° WSW 01:05:30 22° SSW 01:15:53 10° SSE visible
04 Oct - 07:34:43 10° S 07:38:09 13° SSE 07:41:08 10° SE daylight
04 Oct - 09:36:57 10° SW 09:43:44 69° SE 09:48:36 10° ENE daylight
04 Oct - 11:46:03 10° NW 11:47:10 11° NW 11:48:15 10° NNW daylight
04 Oct - 20:08:52 10° NNW 20:18:05 39° NE 20:30:30 10° ESE visible
04 Oct - 22:12:12 10° WNW 22:24:02 70° SW 22:39:08 10° SE visible
05 Oct - 00:21:21 10° W 00:32:01 25° SSW 00:43:19 10° SSE visible
05 Oct - 07:02:19 10° S 07:05:19 12° SSE 07:08:00 10° SE daylight
05 Oct - 09:04:09 10° SW 09:11:23 56° SE 09:16:27 10° ENE daylight
05 Oct - 11:11:48 10° W 11:14:53 15° NW 11:17:39 10° N daylight
05 Oct - 19:36:56 10° NNW 19:45:15 32° NE 19:56:24 10° ESE visible
05 Oct - 21:39:36 10° NW 21:50:50 78° SW 22:05:50 10° SE visible
